Three Rivers, MI

7:43 PM EDT on May 23, 2017 (GMT -0400)
Three Rivers Municipal-Haines

Weather History for KHAI - January, 2014

Change the Weather History Date:

Tuesday, January 7, 2014

  Actual Average Record
Temperature  
Mean Temperature -5 °F -  
Max Temperature 1 °F 30 °F 50 °F (1949)
Min Temperature -11 °F 16 °F -13 °F (1970)
Degree Days  
Heating Degree Days 70    
Moisture  
Dew Point -14 °F    
Average Humidity 66    
Maximum Humidity 78    
Minimum Humidity 55    
Precipitation  
Precipitation 0.00 in - - ()
Sea Level Pressure  
Sea Level Pressure 30.22 in    
Wind  
Wind Speed 11 mph (SW)    
Max Wind Speed 16 mph    
Max Gust Speed 23 mph    
Visibility 8 miles    
Events      
Averages and records for this station are not official NWS values.
T = Trace of Precipitation, MM = Missing Value Source: NWS Daily Summary

Daily Weather History Graph

Daily Weather History Graph

Search for Another Location

Airport or City:

Trip Planner

Search our weather history database for the weather conditions in past years. The results will help you decide how hot, cold, wet, or windy it might be!

Date:

Astronomy

Jan. 07, 2014 Rise Set
Actual Time 8:10 AM EST 5:27 PM EST
Civil Twilight 7:38 AM EST 5:58 PM EST
Nautical Twilight 7:04 AM EST 6:33 PM EST
Astronomical Twilight 6:30 AM EST 7:07 PM EST
Moon 11:51 AM EST (1/7) 12:06 AM EST (1/7)
Length of Visible Light 10h 19m
Length of Day
9h 17m
Waxing Crescent, 45% of the Moon is Illuminated
Jan 7
Waxing Crescent
Jan 7
First Quarter
Jan 15
Full
Jan 24
Last Quarter
Jan 30
New

Hourly Weather History & Observations

Time (EST) Temp. Windchill Dew Point Humidity Pressure Visibility Wind Dir Wind Speed Gust Speed Precip Events Conditions
12:15 AM -11.6 °F -31.6 °F -18.9 °F 70% 30.13 in 2.5 mi SW 11.5 mph 20.7 mph N/A   Haze
12:35 AM -11.4 °F -33.1 °F -18.8 °F 70% 30.12 in 2.5 mi SW 13.8 mph 19.6 mph N/A   Haze
12:54 AM -11.6 °F -33.4 °F -19.1 °F 69% 30.13 in 2.5 mi SW 13.8 mph 18.4 mph N/A   Haze
1:15 AM -11.7 °F -31.8 °F -19.3 °F 69% 30.12 in 2.5 mi SW 11.5 mph 16.1 mph N/A   Haze
1:35 AM -11.6 °F -33.4 °F -19.3 °F 69% 30.12 in 2.0 mi SW 13.8 mph 18.4 mph N/A   Haze
1:54 AM -11.6 °F -33.4 °F -19.3 °F 69% 30.13 in 2.5 mi WSW 13.8 mph 20.7 mph N/A   Haze
2:15 AM -11.6 °F -32.5 °F -19.1 °F 69% 30.14 in 2.5 mi SW 12.7 mph 20.7 mph N/A   Haze
2:34 AM -11.4 °F -32.3 °F -19.3 °F 68% 30.14 in 3.0 mi SW 12.7 mph 19.6 mph N/A   Haze
2:55 AM -11.4 °F -31.4 °F -19.3 °F 68% 30.14 in 3.0 mi SW 11.5 mph 20.7 mph N/A   Haze
3:14 AM -11.2 °F -32.1 °F -18.8 °F 69% 30.14 in 4.0 mi SW 12.7 mph 23.0 mph N/A   Haze
3:35 AM -11.2 °F -32.1 °F -19.1 °F 68% 30.14 in 3.0 mi WSW 12.7 mph 23.0 mph N/A   Haze
3:54 AM -11.2 °F -32.9 °F -18.8 °F 69% 30.14 in 3.0 mi SW 13.8 mph 21.9 mph N/A   Haze
4:15 AM -11.2 °F -31.1 °F -18.9 °F 69% 30.14 in 4.0 mi SW 11.5 mph 17.3 mph N/A   Haze
4:35 AM -11.2 °F -32.9 °F -18.8 °F 69% 30.14 in 3.0 mi SW 13.8 mph 17.3 mph N/A   Haze
4:54 AM -11.0 °F -30.9 °F -18.8 °F 69% 30.15 in 4.0 mi SW 11.5 mph 17.3 mph N/A   Haze
5:15 AM -11.2 °F -31.1 °F -18.8 °F 69% 30.15 in 5.0 mi SW 11.5 mph 17.3 mph N/A   Haze
5:35 AM -10.7 °F -32.2 °F -18.4 °F 69% 30.15 in 5.0 mi WSW 13.8 mph 17.3 mph N/A   Haze
5:55 AM -10.7 °F -30.5 °F -18.4 °F 69% 30.17 in 7.0 mi SW 11.5 mph 18.4 mph N/A   Scattered Clouds
6:15 AM -10.8 °F -30.7 °F -18.6 °F 69% 30.17 in 10.0 mi SW 11.5 mph 16.1 mph N/A   Clear
6:34 AM -11.2 °F -30.1 °F -18.8 °F 69% 30.17 in 10.0 mi SW 10.4 mph 17.3 mph N/A   Clear
6:55 AM -11.2 °F -30.1 °F -18.8 °F 69% 30.18 in 10.0 mi SW 10.4 mph 18.4 mph N/A   Clear
7:15 AM -11.0 °F -28.8 °F -18.6 °F 69% 30.18 in 10.0 mi SW 9.2 mph 18.4 mph N/A   Clear
7:34 AM -11.0 °F -29.9 °F -18.6 °F 69% 30.19 in 10.0 mi WSW 10.4 mph - N/A   Clear
7:55 AM -10.8 °F -29.7 °F -18.4 °F 69% 30.19 in 10.0 mi SW 10.4 mph 18.4 mph N/A   Clear
8:15 AM -11.0 °F -31.8 °F -18.4 °F 70% 30.19 in 10.0 mi SW 12.7 mph 17.3 mph N/A   Clear
8:34 AM -10.7 °F -28.4 °F -18.4 °F 69% 30.20 in 7.0 mi SW 9.2 mph 18.4 mph N/A   Clear
8:55 AM -10.3 °F -30.9 °F -17.9 °F 69% 30.20 in 10.0 mi SW 12.7 mph 16.1 mph N/A   Clear
9:14 AM -9.6 °F -31.6 °F -17.7 °F 68% 30.21 in 7.0 mi SW 15.0 mph 19.6 mph N/A   Clear
9:35 AM -8.7 °F -27.0 °F -17.0 °F 67% 30.22 in 7.0 mi SW 10.4 mph 23.0 mph N/A   Clear
9:55 AM -7.6 °F -29.1 °F -16.1 °F 67% 30.25 in 7.0 mi SW 15.0 mph 20.7 mph N/A   Clear
10:14 AM -6.7 °F -28.7 °F -15.9 °F 64% 30.26 in 7.0 mi SW 16.1 mph 20.7 mph N/A   Clear
10:35 AM -6.2 °F -26.5 °F -15.5 °F 64% 30.27 in 7.0 mi WSW 13.8 mph 17.3 mph N/A   Scattered Clouds
10:54 AM -5.6 °F -24.1 °F -15.3 °F 63% 30.27 in 7.0 mi WSW 11.5 mph 19.6 mph N/A   Clear
11:15 AM -4.7 °F -26.1 °F -14.8 °F 62% 30.26 in 7.0 mi SW 16.1 mph 20.7 mph N/A   Clear
11:34 AM -4.0 °F -21.2 °F -14.8 °F 60% 30.25 in 7.0 mi WSW 10.4 mph 20.7 mph N/A   Clear
11:55 AM -3.8 °F -24.3 °F -14.8 °F 59% 30.25 in 10.0 mi WSW 15.0 mph 19.6 mph N/A   Clear
12:15 PM -2.7 °F -23.5 °F -13.9 °F 59% 30.24 in 10.0 mi WSW 16.1 mph - N/A   Clear
12:34 PM -3.1 °F -21.8 °F -14.1 °F 59% 30.23 in 10.0 mi SW 12.7 mph 18.4 mph N/A   Clear
12:55 PM -2.6 °F -20.3 °F -13.5 °F 60% 30.22 in 10.0 mi SW 11.5 mph - N/A   Scattered Clouds
1:15 PM -2.2 °F -21.5 °F -13.0 °F 60% 30.23 in 10.0 mi SW 13.8 mph 20.7 mph N/A   Mostly Cloudy
1:34 PM -2.2 °F -18.9 °F -13.2 °F 60% 30.22 in 10.0 mi WSW 10.4 mph 18.4 mph N/A   Scattered Clouds
1:55 PM -1.5 °F -19.8 °F -12.8 °F 59% 30.22 in 10.0 mi WSW 12.7 mph 20.7 mph N/A   Scattered Clouds
2:14 PM -1.1 °F -14.3 °F -12.8 °F 58% 30.22 in 10.0 mi SW 6.9 mph - N/A   Clear
2:35 PM -0.4 °F -16.7 °F -12.5 °F 57% 30.23 in 10.0 mi WSW 10.4 mph 17.3 mph N/A   Scattered Clouds
2:55 PM 0.1 °F -16.9 °F -12.1 °F 56% 30.24 in 10.0 mi WSW 11.5 mph 21.9 mph N/A   Overcast
3:14 PM 1.4 °F -16.9 °F -11.2 °F 56% 30.24 in 10.0 mi WSW 13.8 mph 23.0 mph N/A   Overcast
3:35 PM 0.5 °F -15.6 °F -11.4 °F 57% 30.24 in 10.0 mi WSW 10.4 mph 20.7 mph N/A   Overcast
3:55 PM 1.2 °F -14.7 °F -11.2 °F 56% 30.24 in 10.0 mi SW 10.4 mph - N/A   Mostly Cloudy
4:14 PM 1.4 °F -16.1 °F -11.2 °F 56% 30.24 in 10.0 mi SW 12.7 mph 18.4 mph N/A   Scattered Clouds
4:35 PM 1.4 °F -14.5 °F -11.4 °F 55% 30.24 in 10.0 mi WSW 10.4 mph 17.3 mph N/A   Clear
4:55 PM 1.4 °F -9.9 °F -11.2 °F 56% 30.24 in 10.0 mi SW 5.8 mph - N/A   Clear
5:14 PM 0.9 °F -13.1 °F -11.2 °F 57% 30.24 in 10.0 mi SW 8.1 mph 16.1 mph N/A   Clear
5:35 PM -1.3 °F -17.8 °F -11.6 °F 62% 30.24 in 10.0 mi SW 10.4 mph - N/A   Clear
5:55 PM -1.8 °F -18.5 °F -11.6 °F 63% 30.24 in 10.0 mi SSW 10.4 mph - N/A   Clear
6:14 PM -0.9 °F -16.4 °F -10.5 °F 64% 30.25 in 10.0 mi SW 9.2 mph - N/A   Clear
6:35 PM -1.5 °F -16.0 °F -10.5 °F 66% 30.25 in 10.0 mi SW 8.1 mph - N/A   Clear
6:55 PM -2.4 °F -15.8 °F -11.0 °F 67% 30.26 in 10.0 mi SW 6.9 mph - N/A   Clear
7:15 PM -2.0 °F -16.6 °F -10.5 °F 67% 30.26 in 10.0 mi SW 8.1 mph - N/A   Clear
7:35 PM -3.5 °F -18.4 °F -11.0 °F 70% 30.27 in 10.0 mi SW 8.1 mph - N/A   Clear
7:54 PM -3.3 °F -16.9 °F -10.8 °F 70% 30.27 in 10.0 mi SW 6.9 mph - N/A   Clear
8:15 PM -2.4 °F -17.1 °F -9.6 °F 71% 30.28 in 10.0 mi SW 8.1 mph - N/A   Clear
8:35 PM -2.0 °F -15.4 °F -9.2 °F 71% 30.28 in 10.0 mi SW 6.9 mph - N/A   Clear
8:54 PM -2.2 °F -12.5 °F -9.4 °F 71% 30.29 in 10.0 mi SW 4.6 mph - N/A   Clear
9:15 PM -2.2 °F -15.6 °F -9.4 °F 71% 30.29 in 10.0 mi SW 6.9 mph - N/A   Clear
9:35 PM -1.3 °F -14.5 °F -8.1 °F 73% 30.29 in 10.0 mi SW 6.9 mph - N/A   Clear
9:54 PM -0.9 °F -14.1 °F -8.0 °F 72% 30.29 in 10.0 mi SW 6.9 mph - N/A   Clear
10:15 PM -0.9 °F -11.0 °F -7.6 °F 73% 30.30 in 10.0 mi SW 4.6 mph - N/A   Clear
10:34 PM -1.3 °F -11.4 °F -7.6 °F 75% 30.30 in 10.0 mi SW 4.6 mph - N/A   Clear
10:55 PM -3.5 °F -15.7 °F -9.6 °F 75% 30.30 in 10.0 mi SSW 5.8 mph - N/A   Clear
11:15 PM -2.7 °F -13.1 °F -8.3 °F 77% 30.30 in 10.0 mi SSW 4.6 mph - N/A   Clear
11:34 PM -4.4 °F -15.0 °F -10.1 °F 76% 30.30 in 10.0 mi SSW 4.6 mph - N/A   Clear
11:55 PM -3.1 °F -11.4 °F -8.5 °F 78% 30.29 in 10.0 mi South 3.5 mph - N/A   Clear